2022-08-17 00:09:15 r, 20.80m,0000000000Hz,0001126577c,0000002.445s, 031.9C,00002191
2022-08-17 00:19:15 r, 20.74m,0000000000Hz,0001072953c,0000002.328s, 031.9C,00002191
2022-08-17 00:29:18 r, 20.70m,0000000001Hz,0001035517c,0000002.247s, 031.9C,00002191
2022-08-17 00:39:15 r, 20.77m,0000000000Hz,0001090561c,0000002.367s, 031.9C,00002191
2022-08-17 00:49:15 r, 20.58m,0000000000Hz,0000923341c,0000002.004s, 031.9C,00002191
2022-08-17 00:59:16 r, 20.43m,0000000001Hz,0000802470c,0000001.741s, 031.5C,00002191
2022-08-17 01:09:15 r, 20.23m,0000000000Hz,0000670767c,0000001.456s, 031.2C,00002191
2022-08-17 01:19:15 r, 20.16m,0000000001Hz,0000627933c,0000001.363s, 031.2C,00002191
2022-08-17 01:29:16 r, 20.09m,0000000001Hz,0000596933c,0000001.295s, 030.9C,00002191
2022-08-17 01:39:15 r, 20.04m,0000000001Hz,0000565560c,0000001.227s, 030.9C,00002191
2022-08-17 01:49:15 r, 20.08m,0000000001Hz,0000587641c,0000001.275s, 030.9C,00002191
2022-08-17 01:59:17 r, 20.35m,0000000001Hz,0000748753c,0000001.625s, 031.2C,00002191
2022-08-17 02:09:15 r, 20.57m,0000000001Hz,0000920614c,0000001.998s, 030.9C,00002191
2022-08-17 02:19:15 r, 20.59m,0000000001Hz,0000933984c,0000002.027s, 030.9C,00002191
2022-08-17 02:29:18 r, 20.59m,0000000001Hz,0000938559c,0000002.037s, 030.6C,00002191
2022-08-17 02:39:16 r, 20.47m,0000000001Hz,0000841602c,0000001.826s, 030.6C,00002191
2022-08-17 02:49:15 r, 20.43m,0000000001Hz,0000812932c,0000001.764s, 030.6C,00002191
2022-08-17 02:59:18 r, 20.49m,0000000001Hz,0000860056c,0000001.866s, 030.6C,00002191
2022-08-17 03:09:16 r, 19.93m,0000000001Hz,0000513646c,0000001.115s, 030.6C,00002191
2022-08-17 03:19:15 r, 19.45m,0000000002Hz,0000331149c,0000000.719s, 030.6C,00002191
2022-08-17 03:29:16 r, 19.91m,0000000000Hz,0000502893c,0000001.091s, 030.2C,00002191
2022-08-17 03:39:18 r, 20.15m,0000000001Hz,0000624072c,0000001.354s, 030.2C,00002191
2022-08-17 03:49:16 r, 20.02m,0000000001Hz,0000556983c,0000001.209s, 030.2C,00002191
2022-08-17 03:59:17 r, 20.26m,0000000001Hz,0000695845c,0000001.510s, 030.2C,00002191
2022-08-17 04:09:16 r, 20.24m,0000000001Hz,0000681592c,0000001.479s, 029.9C,00002191
2022-08-17 04:19:16 r, 20.32m,0000000001Hz,0000732218c,0000001.589s, 029.9C,00002191
2022-08-17 04:29:18 r, 20.32m,0000000000Hz,0000733062c,0000001.591s, 029.9C,00002191
2022-08-17 04:39:16 r, 20.29m,0000000000Hz,0000710539c,0000001.542s, 029.9C,00002191
2022-08-17 04:49:16 r, 20.17m,0000000001Hz,0000642226c,0000001.394s, 029.9C,00002191
2022-08-17 04:59:18 r, 19.99m,0000000001Hz,0000544264c,0000001.181s, 029.9C,00002191
2022-08-17 05:09:16 r, 19.50m,0000000001Hz,0000345814c,0000000.750s, 029.9C,00002191
2022-08-17 05:19:16 r, 18.61m,0000000003Hz,0000151796c,0000000.329s, 029.9C,00002191
2022-08-17 05:29:16 r, 17.36m,0000000009Hz,0000048000c,0000000.104s, 029.9C,00002191
2022-08-17 05:39:17 r, 15.74m,0000000043Hz,0000010817c,0000000.023s, 029.9C,00002191
2022-08-17 05:49:16 r, 13.86m,0000000240Hz,0000000000c,0000000.000s, 029.9C,00002191
2022-08-17 05:59:17 r, 12.02m,0000001322Hz,0000000000c,0000000.000s, 029.6C,00002191
2022-08-17 06:09:16 r, 10.34m,0000006179Hz,0000000000c,0000000.000s, 029.6C,00002191
2022-08-17 06:19:16 r, 09.01m,0000021073Hz,0000000000c,0000000.000s, 029.6C,00002191
2022-08-17 06:29:16 r, 08.08m,0000049443Hz,0000000000c,0000000.000s, 029.6C,00002191
2022-08-17 06:39:18 r, 07.51m,0000083913Hz,0000000000c,0000000.000s, 029.6C,00002191
2022-08-17 06:49:16 r, 07.08m,0000124771Hz,0000000000c,0000000.000s, 029.6C,00002191
2022-08-17 06:59:18 r, 06.44m,0000224029Hz,0000000000c,0000000.000s, 029.9C,00002191
2022-08-17 07:09:16 r, 06.15m,0000293543Hz,0000000000c,0000000.000s, 030.2C,00002191
2022-08-17 07:19:16 r, 05.90m,0000366714Hz,0000000000c,0000000.000s, 031.2C,00002191
2022-08-17 07:29:18 r, 00.00m,0000435203Hz,0000000000c,0000000.000s, 032.2C,00002191
2022-08-17 07:39:16 r, 00.00m,0000514729Hz,0000000000c,0000000.000s, 032.5C,00002191
2022-08-17 07:49:16 r, 00.00m,0000596391Hz,0000000000c,0000000.000s, 033.8C,00002191
2022-08-17 07:59:16 r, 00.00m,0000596318Hz,0000000000c,0000000.000s, 034.8C,00002191
2022-08-17 08:09:18 r, 00.00m,0000596208Hz,0000000000c,0000000.000s, 035.4C,00002191
2022-08-17 08:19:16 r, 00.00m,0000596107Hz,0000000000c,0000000.000s, 036.0C,00002191
2022-08-17 08:29:16 r, 00.00m,0000595910Hz,0000000000c,0000000.000s, 036.7C,00002191
2022-08-17 08:39:18 r, 00.00m,0000595972Hz,0000000000c,0000000.000s, 036.7C,00002191
2022-08-17 08:49:16 r, 00.00m,0000595894Hz,0000000000c,0000000.000s, 037.0C,00002191
2022-08-17 08:59:16 r, 00.00m,0000595641Hz,0000000000c,0000000.000s, 038.3C,00002191
2022-08-17 09:09:16 r, 00.00m,0000595424Hz,0000000000c,0000000.000s, 039.6C,00002191
2022-08-17 09:19:16 r, 00.00m,0000595297Hz,0000000000c,0000000.000s, 040.6C,00002191
2022-08-17 09:29:18 r, 00.00m,0000595184Hz,0000000000c,0000000.000s, 041.9C,00002191
2022-08-17 09:39:16 r, 00.00m,0000595066Hz,0000000000c,0000000.000s, 042.8C,00002191
2022-08-17 09:49:16 r, 00.00m,0000595040Hz,0000000000c,0000000.000s, 043.1C,00002191
2022-08-17 09:59:16 r, 00.00m,0000595203Hz,0000000000c,0000000.000s, 042.5C,00002191
2022-08-17 10:09:17 r, 00.00m,0000595472Hz,0000000000c,0000000.000s, 040.2C,00002191
2022-08-17 10:19:16 r, 00.00m,0000595712Hz,0000000000c,0000000.000s, 039.0C,00002191
2022-08-17 10:29:16 r, 00.00m,0000595698Hz,0000000000c,0000000.000s, 039.0C,00002191
2022-08-17 10:39:18 r, 00.00m,0000595644Hz,0000000000c,0000000.000s, 039.3C,00002191
2022-08-17 10:49:16 r, 00.00m,0000595616Hz,0000000000c,0000000.000s, 039.0C,00002191
2022-08-17 10:59:16 r, 00.00m,0000595576Hz,0000000000c,0000000.000s, 039.3C,00002191
2022-08-17 11:09:16 r, 00.00m,0000595302Hz,0000000000c,0000000.000s, 040.6C,00002191
2022-08-17 11:19:16 r, 00.00m,0000595301Hz,0000000000c,0000000.000s, 041.2C,00002191
2022-08-17 11:29:18 r, 00.00m,0000595378Hz,0000000000c,0000000.000s, 040.9C,00002191
2022-08-17 11:39:17 r, 00.00m,0000595522Hz,0000000000c,0000000.000s, 040.2C,00002191
2022-08-17 11:49:16 r, 00.00m,0000595624Hz,0000000000c,0000000.000s, 039.6C,00002191
2022-08-17 11:59:17 r, 00.00m,0000595701Hz,0000000000c,0000000.000s, 039.3C,00002191
2022-08-17 12:09:17 r, 00.00m,0000595602Hz,0000000000c,0000000.000s, 039.3C,00002191
2022-08-17 12:19:16 r, 00.00m,0000595611Hz,0000000000c,0000000.000s, 039.3C,00002191
2022-08-17 12:29:16 r, 00.00m,0000595673Hz,0000000000c,0000000.000s, 039.3C,00002191
2022-08-17 12:39:18 r, 00.00m,0000595557Hz,0000000000c,0000000.000s, 039.3C,00002191
2022-08-17 12:49:16 r, 00.00m,0000595666Hz,0000000000c,0000000.000s, 039.3C,00002191
2022-08-17 12:59:16 r, 00.00m,0000595631Hz,0000000000c,0000000.000s, 039.6C,00002191
2022-08-17 13:09:18 r, 00.00m,0000595551Hz,0000000000c,0000000.000s, 039.9C,00002191
2022-08-17 13:19:16 r, 00.00m,0000595361Hz,0000000000c,0000000.000s, 040.2C,00002191
2022-08-17 13:29:18 r, 00.00m,0000595229Hz,0000000000c,0000000.000s, 040.9C,00002191
2022-08-17 13:39:17 r, 00.00m,0000595192Hz,0000000000c,0000000.000s, 042.8C,00002191
2022-08-17 13:49:16 r, 00.00m,0000594932Hz,0000000000c,0000000.000s, 044.4C,00002191
2022-08-17 13:59:17 r, 00.00m,0000594371Hz,0000000000c,0000000.000s, 046.7C,00002191
2022-08-17 14:09:17 r, 00.00m,0000593887Hz,0000000000c,0000000.000s, 049.9C,00002191
2022-08-17 14:19:16 r, 00.00m,0000593589Hz,0000000000c,0000000.000s, 052.2C,00002191
2022-08-17 14:29:16 r, 00.00m,0000593350Hz,0000000000c,0000000.000s, 053.1C,00002191
2022-08-17 14:39:18 r, 00.00m,0000593131Hz,0000000000c,0000000.000s, 054.1C,00002191
2022-08-17 14:49:16 r, 00.00m,0000592938Hz,0000000000c,0000000.000s, 055.4C,00002191
2022-08-17 14:59:16 r, 00.00m,0000592738Hz,0000000000c,0000000.000s, 056.0C,00002191
2022-08-17 15:09:18 r, 00.00m,0000592820Hz,0000000000c,0000000.000s, 055.7C,00002191
2022-08-17 15:19:16 r, 00.00m,0000592715Hz,0000000000c,0000000.000s, 055.7C,00002191
2022-08-17 15:29:16 r, 00.00m,0000592733Hz,0000000000c,0000000.000s, 055.7C,00002191
2022-08-17 15:39:16 r, 00.00m,0000592718Hz,0000000000c,0000000.000s, 056.0C,00002191
2022-08-17 15:49:16 r, 00.00m,0000592863Hz,0000000000c,0000000.000s, 056.0C,00002191
2022-08-17 15:59:16 r, 00.00m,0000592864Hz,0000000000c,0000000.000s, 055.1C,00002191
2022-08-17 16:09:17 r, 00.00m,0000593205Hz,0000000000c,0000000.000s, 053.5C,00002191
2022-08-17 16:19:16 r, 00.00m,0000593517Hz,0000000000c,0000000.000s, 051.2C,00002191
2022-08-17 16:29:16 r, 00.00m,0000593833Hz,0000000000c,0000000.000s, 049.3C,00002191
2022-08-17 16:39:19 r, 00.00m,0000594029Hz,0000000000c,0000000.000s, 048.0C,00002191
2022-08-17 16:49:16 r, 00.00m,0000593652Hz,0000000000c,0000000.000s, 049.9C,00002191
2022-08-17 16:59:16 r, 00.00m,0000593354Hz,0000000000c,0000000.000s, 051.5C,00002191
2022-08-17 17:09:19 r, 00.00m,0000593592Hz,0000000000c,0000000.000s, 050.6C,00002191
2022-08-17 17:19:16 r, 00.00m,0000593776Hz,0000000000c,0000000.000s, 049.3C,00002191
2022-08-17 17:29:16 r, 00.00m,0000593755Hz,0000000000c,0000000.000s, 049.6C,00002191
2022-08-17 17:39:17 r, 00.00m,0000593599Hz,0000000000c,0000000.000s, 050.2C,00002191
2022-08-17 17:49:16 r, 00.00m,0000593661Hz,0000000000c,0000000.000s, 050.2C,00002191
2022-08-17 17:59:16 r, 00.00m,0000593672Hz,0000000000c,0000000.000s, 050.2C,00002191
2022-08-17 18:09:17 r, 00.00m,0000593713Hz,0000000000c,0000000.000s, 049.9C,00002191
2022-08-17 18:19:16 r, 00.00m,0000593895Hz,0000000000c,0000000.000s, 049.6C,00002191
2022-08-17 18:29:16 r, 00.00m,0000593917Hz,0000000000c,0000000.000s, 048.6C,00002191
2022-08-17 18:39:17 r, 00.00m,0000594083Hz,0000000000c,0000000.000s, 048.3C,00002191
2022-08-17 18:49:16 r, 00.00m,0000594078Hz,0000000000c,0000000.000s, 047.7C,00002191
2022-08-17 18:59:16 r, 00.00m,0000594220Hz,0000000000c,0000000.000s, 047.7C,00002191
2022-08-17 19:09:19 r, 00.00m,0000594268Hz,0000000000c,0000000.000s, 047.7C,00002191
2022-08-17 19:19:17 r, 00.00m,0000555345Hz,0000000000c,0000000.000s, 046.7C,00002191
2022-08-17 19:29:16 r, 05.99m,0000341790Hz,0000000000c,0000000.000s, 045.1C,00002191
2022-08-17 19:39:17 r, 00.00m,0000442323Hz,0000000000c,0000000.000s, 043.5C,00002191
2022-08-17 19:49:18 r, 06.24m,0000271309Hz,0000000000c,0000000.000s, 042.5C,00002191
2022-08-17 19:59:16 r, 06.96m,0000139321Hz,0000000000c,0000000.000s, 041.2C,00002191
2022-08-17 20:09:18 r, 07.03m,0000130707Hz,0000000000c,0000000.000s, 039.9C,00002191
2022-08-17 20:19:17 r, 07.37m,0000095028Hz,0000000000c,0000000.000s, 038.6C,00002191
2022-08-17 20:29:16 r, 08.14m,0000046726Hz,0000000000c,0000000.000s, 037.7C,00002191
2022-08-17 20:39:17 r, 09.06m,0000020113Hz,0000000000c,0000000.000s, 036.7C,00002191
2022-08-17 20:49:19 r, 10.23m,0000006819Hz,0000000000c,0000000.000s, 036.4C,00002191
2022-08-17 20:59:16 r, 11.49m,0000002144Hz,0000000000c,0000000.000s, 036.0C,00002191
2022-08-17 21:09:19 r, 13.27m,0000000415Hz,0000000000c,0000000.000s, 035.7C,00002191
2022-08-17 21:19:17 r, 15.09m,0000000078Hz,0000005960c,0000000.013s, 035.7C,00002191
2022-08-17 21:29:16 r, 16.86m,0000000016Hz,0000030380c,0000000.066s, 035.4C,00002191
2022-08-17 21:39:17 r, 18.39m,0000000003Hz,0000123957c,0000000.269s, 035.1C,00002191
2022-08-17 21:49:18 r, 19.38m,0000000002Hz,0000308149c,0000000.669s, 034.8C,00002191
2022-08-17 21:59:16 r, 20.28m,0000000001Hz,0000700549c,0000001.520s, 034.8C,00002191
2022-08-17 22:09:18 r, 20.89m,0000000001Hz,0001233254c,0000002.676s, 034.4C,00002191
2022-08-17 22:19:17 r, 21.17m,0000000000Hz,0001583271c,0000003.436s, 034.4C,00002191
2022-08-17 22:29:16 r, 21.29m,0000000000Hz,0001751546c,0000003.801s, 034.1C,00002191
2022-08-17 22:39:17 r, 21.22m,0000000000Hz,0001653558c,0000003.588s, 034.1C,00002191
2022-08-17 22:49:19 r, 20.47m,0000000000Hz,0000837738c,0000001.818s, 034.1C,00002191
2022-08-17 22:59:16 r, 20.25m,0000000001Hz,0000687195c,0000001.491s, 033.8C,00002191
2022-08-17 23:09:19 r, 20.27m,0000000001Hz,0000695238c,0000001.509s, 033.8C,00002191
2022-08-17 23:19:17 r, 20.29m,0000000001Hz,0000707445c,0000001.535s, 034.1C,00002191
2022-08-17 23:29:16 r, 20.27m,0000000001Hz,0000694829c,0000001.508s, 033.8C,00002191
2022-08-17 23:39:19 r, 20.39m,0000000001Hz,0000774450c,0000001.681s, 033.8C,00002191
2022-08-17 23:49:17 r, 20.64m,0000000000Hz,0000973124c,0000002.112s, 033.8C,00002191
2022-08-17 23:59:16 r, 20.73m,0000000001Hz,0001058340c,0000002.297s, 033.8C,00002191
